OneWeb SL0716

operational
NORAD ID: 55177 Int'l Des: 2023-004 Owner: ONEWEBN Country: UK Constellation: oneweb
LEOCIRCULARPOLARONEWEB_TYPE

About OneWeb SL0716

Description loading...

Live Position

Loading 3D Globe...

Upcoming Passes

Altitude History

Altitude vs Time

uPlot chart will show altitude changes over time

Two-Line Element Set

1 55177U 23004AP 26061.43078854 .00000040 00000-0 69506-4 0 9992
2 55177 87.9137 27.0679 0001733 89.6471 270.4859 13.17648365153527
Epoch: Mar 2, 2026 • Age: 26 hours

Current Status

Altitude 1196.7 km
Velocity 7.26 km/s
Sub-Earth Point -0.11°S, 18.65°E
Launch Date Jan 10, 2023
Age 3.1 years
Type internet

Technical Details

Classification Payload
Mass 148.00 kg
Dry Mass 140.00 kg
Total Mass 148.00 kg
Length 1.30 m
Diameter 1.00 m
Span 5.00 m
Shape Trapezoid+2 pan
Manufacturer ONEWUS
Bus Type ARROW
Phase Status In Orbit
Owner/State ONEWEBN/UK

Large Constellations

Loading constellations...